DLH4N EDDM-EDDF

Flight info

Callsign DLH4N
Flight time 0h 43m
Altitude 24000
Route GIVMI1N/26R GIVMI Y101 ERNAS T161 DEBHI DEBHI1B
Aircraft A320/M-SDE3FGHIRWY/LB1

Departure

Time 2026-05-07 15:56
Airport Munich Airport (EDDM)

Arrival

Time 2026-05-07 16:39
Airport Frankfurt Main Airport (EDDF)
Time Latitude Longitude Altitude Speed Heading
2026-05-07 15:19 48.35487 11.79277 1467 ft 0 kts 263°
2026-05-07 15:45 48.35488 11.79296 1458 ft 2 kts 262°
2026-05-07 15:45 48.35490 11.79320 1460 ft 2 kts 262°
2026-05-07 15:45 48.35492 11.79345 1461 ft 2 kts 263°
2026-05-07 15:45 48.35494 11.79370 1459 ft 2 kts 264°
2026-05-07 15:46 48.35497 11.79419 1457 ft 2 kts 284°
2026-05-07 15:46 48.35490 11.79441 1458 ft 2 kts 326°
2026-05-07 15:46 48.35479 11.79450 1462 ft 1 kts 350°
2026-05-07 15:47 48.35477 11.79451 1463 ft 0 kts 352°
2026-05-07 15:48 48.35482 11.79450 1461 ft 3 kts 353°
2026-05-07 15:48 48.35515 11.79444 1457 ft 7 kts 353°
2026-05-07 15:48 48.35572 11.79434 1460 ft 10 kts 354°
2026-05-07 15:49 48.35649 11.79421 1467 ft 13 kts 354°
2026-05-07 15:49 48.35723 11.79415 1467 ft 11 kts 13°
2026-05-07 15:49 48.35792 11.79493 1462 ft 13 kts 42°
2026-05-07 15:49 48.35858 11.79524 1463 ft 11 kts 352°
2026-05-07 15:50 48.35941 11.79509 1467 ft 13 kts 353°
2026-05-07 15:50 48.36019 11.79495 1459 ft 11 kts 353°
2026-05-07 15:50 48.36100 11.79480 1466 ft 13 kts 353°
2026-05-07 15:50 48.36198 11.79480 1464 ft 15 kts 26°
2026-05-07 15:51 48.36226 11.79634 1463 ft 17 kts 83°
2026-05-07 15:51 48.36242 11.79822 1468 ft 20 kts 82°
2026-05-07 15:51 48.36257 11.80040 1468 ft 22 kts 83°
2026-05-07 15:51 48.36276 11.80280 1464 ft 23 kts 84°
2026-05-07 15:52 48.36292 11.80501 1468 ft 22 kts 83°
2026-05-07 15:52 48.36309 11.80710 1460 ft 20 kts 83°
2026-05-07 15:52 48.36325 11.80925 1465 ft 22 kts 83°
2026-05-07 15:52 48.36343 11.81159 1464 ft 23 kts 83°
2026-05-07 15:53 48.36364 11.81413 1467 ft 25 kts 82°
2026-05-07 15:53 48.36380 11.81645 1461 ft 23 kts 83°
2026-05-07 15:53 48.36396 11.81839 1461 ft 13 kts 84°
2026-05-07 15:53 48.36390 11.81962 1459 ft 11 kts 97°
2026-05-07 15:54 48.36421 11.82038 1463 ft 8 kts 359°
2026-05-07 15:54 48.36481 11.82005 1458 ft 10 kts 348°
2026-05-07 15:54 48.36559 11.81991 1463 ft 12 kts 354°
2026-05-07 15:54 48.36646 11.81965 1461 ft 13 kts 330°
2026-05-07 15:55 48.36668 11.81830 1464 ft 15 kts 263°
2026-05-07 15:55 48.36653 11.81630 1460 ft 31 kts 263°
2026-05-07 15:55 48.36597 11.80912 1459 ft 104 kts 263°
2026-05-07 15:55 48.36497 11.79550 1461 ft 158 kts 267°
2026-05-07 15:56 48.36391 11.77816 2004 ft 168 kts 268°
2026-05-07 15:56 48.36267 11.76094 2769 ft 170 kts 266°
2026-05-07 15:56 48.36124 11.74224 3156 ft 191 kts 265°
2026-05-07 15:56 48.35960 11.72125 3524 ft 212 kts 265°
2026-05-07 15:57 48.35776 11.69841 4210 ft 223 kts 265°
2026-05-07 15:57 48.35935 11.67527 5101 ft 228 kts 290°
2026-05-07 15:57 48.36723 11.65322 5624 ft 251 kts 300°
2026-05-07 15:57 48.37656 11.63044 6484 ft 258 kts 301°
2026-05-07 15:58 48.38618 11.60729 7424 ft 262 kts 300°
2026-05-07 15:58 48.39592 11.58395 8360 ft 266 kts 300°
2026-05-07 15:58 48.40576 11.56014 9304 ft 269 kts 300°
2026-05-07 15:58 48.41572 11.53579 9848 ft 274 kts 299°
2026-05-07 15:59 48.42232 11.51960 9968 ft 274 kts 299°
2026-05-07 15:59 48.43552 11.48715 10152 ft 277 kts 299°
2026-05-07 15:59 48.44587 11.46249 11048 ft 279 kts 304°
2026-05-07 15:59 48.45974 11.44159 11906 ft 287 kts 321°
2026-05-07 16:00 48.47119 11.43103 12286 ft 301 kts 331°
2026-05-07 16:00 48.49962 11.41950 12663 ft 336 kts 347°
2026-05-07 16:00 48.52309 11.41330 13250 ft 346 kts 347°
2026-05-07 16:00 48.54696 11.40704 13989 ft 351 kts 347°
2026-05-07 16:01 48.57123 11.40057 14702 ft 355 kts 346°
2026-05-07 16:01 48.59563 11.39397 15421 ft 358 kts 346°
2026-05-07 16:01 48.62032 11.38721 16147 ft 361 kts 346°
2026-05-07 16:01 48.63709 11.38258 16643 ft 363 kts 346°
2026-05-07 16:02 48.66203 11.37563 17355 ft 366 kts 346°
2026-05-07 16:02 48.68708 11.36754 18048 ft 367 kts 340°
2026-05-07 16:02 48.71072 11.35344 18663 ft 367 kts 330°
2026-05-07 16:02 48.73218 11.33350 19244 ft 368 kts 323°
2026-05-07 16:03 48.75382 11.31147 19860 ft 370 kts 323°
2026-05-07 16:03 48.77533 11.28967 20436 ft 373 kts 323°
2026-05-07 16:03 48.79666 11.26807 21017 ft 376 kts 323°
2026-05-07 16:03 48.81855 11.24587 21594 ft 378 kts 323°
2026-05-07 16:04 48.84040 11.22345 22131 ft 382 kts 322°
2026-05-07 16:04 48.86089 11.19712 22358 ft 391 kts 315°
2026-05-07 16:04 48.88110 11.16892 22805 ft 396 kts 315°
2026-05-07 16:04 48.90150 11.14043 23297 ft 399 kts 316°
2026-05-07 16:05 48.92205 11.11173 23770 ft 402 kts 316°
2026-05-07 16:05 48.94268 11.08293 23986 ft 404 kts 316°
2026-05-07 16:05 48.96343 11.05398 24037 ft 404 kts 316°
2026-05-07 16:05 48.98405 11.02515 24054 ft 404 kts 316°
2026-05-07 16:06 49.00475 10.99613 24054 ft 404 kts 316°
2026-05-07 16:06 49.02542 10.96709 24065 ft 404 kts 315°
2026-05-07 16:06 49.04607 10.93805 24064 ft 404 kts 315°
2026-05-07 16:06 49.06656 10.90922 24065 ft 404 kts 315°
2026-05-07 16:07 49.08750 10.87977 24075 ft 405 kts 316°
2026-05-07 16:07 49.10794 10.85102 24075 ft 405 kts 316°
2026-05-07 16:07 49.12863 10.82181 24074 ft 405 kts 315°
2026-05-07 16:07 49.14933 10.79244 24077 ft 405 kts 315°
2026-05-07 16:08 49.16993 10.76315 24079 ft 399 kts 315°
2026-05-07 16:08 49.18989 10.73480 24083 ft 387 kts 315°
2026-05-07 16:08 49.20928 10.70667 24092 ft 383 kts 314°
2026-05-07 16:08 49.22808 10.67785 24089 ft 382 kts 313°
2026-05-07 16:09 49.24655 10.64854 24099 ft 382 kts 312°
2026-05-07 16:09 49.26485 10.61908 24097 ft 383 kts 312°
2026-05-07 16:09 49.28321 10.58944 24093 ft 383 kts 312°
2026-05-07 16:09 49.30165 10.55989 24085 ft 384 kts 313°
2026-05-07 16:10 49.31990 10.53082 24089 ft 384 kts 313°
2026-05-07 16:10 49.33851 10.50129 24086 ft 385 kts 313°
2026-05-07 16:10 49.35682 10.47196 24083 ft 385 kts 310°
2026-05-07 16:10 49.37315 10.43956 23814 ft 386 kts 304°
2026-05-07 16:11 49.38863 10.40605 23329 ft 382 kts 304°
2026-05-07 16:11 49.40382 10.37277 22935 ft 379 kts 304°
2026-05-07 16:11 49.41886 10.33965 22546 ft 377 kts 303°
2026-05-07 16:11 49.43384 10.30665 22163 ft 375 kts 303°
2026-05-07 16:12 49.44871 10.27389 21790 ft 373 kts 303°
2026-05-07 16:12 49.46356 10.24124 21399 ft 371 kts 303°
2026-05-07 16:12 49.47833 10.20875 21021 ft 369 kts 303°
2026-05-07 16:12 49.49301 10.17642 20648 ft 367 kts 303°
2026-05-07 16:13 49.50754 10.14428 20277 ft 365 kts 303°
2026-05-07 16:13 49.52198 10.11229 19915 ft 363 kts 303°
2026-05-07 16:13 49.53633 10.08049 19536 ft 361 kts 303°
2026-05-07 16:13 49.55066 10.04872 19171 ft 360 kts 303°
2026-05-07 16:14 49.56488 10.01718 18802 ft 358 kts 303°
2026-05-07 16:14 49.57903 9.98573 18436 ft 356 kts 303°
2026-05-07 16:14 49.59309 9.95441 18043 ft 354 kts 303°
2026-05-07 16:14 49.60706 9.92327 17675 ft 353 kts 303°
2026-05-07 16:15 49.62083 9.89260 17320 ft 351 kts 303°
2026-05-07 16:15 49.63472 9.86164 16956 ft 350 kts 303°
2026-05-07 16:15 49.64851 9.83087 16613 ft 348 kts 303°
2026-05-07 16:15 49.66218 9.80029 16250 ft 346 kts 303°
2026-05-07 16:16 49.67582 9.76970 15909 ft 345 kts 303°
2026-05-07 16:16 49.68940 9.73924 15560 ft 343 kts 303°
2026-05-07 16:16 49.70291 9.70893 15196 ft 342 kts 303°
2026-05-07 16:16 49.71634 9.67875 14865 ft 340 kts 304°
2026-05-07 16:17 49.72970 9.64865 14523 ft 338 kts 304°
2026-05-07 16:17 49.74295 9.61875 14172 ft 336 kts 304°
2026-05-07 16:17 49.75612 9.58902 13819 ft 334 kts 304°
2026-05-07 16:17 49.76915 9.55957 13373 ft 331 kts 304°
2026-05-07 16:18 49.78201 9.53048 12916 ft 329 kts 304°
2026-05-07 16:18 49.79490 9.50136 12447 ft 327 kts 304°
2026-05-07 16:18 49.80744 9.47306 11991 ft 325 kts 303°
2026-05-07 16:18 49.82017 9.44420 11545 ft 322 kts 303°
2026-05-07 16:19 49.83278 9.41552 11096 ft 320 kts 303°
2026-05-07 16:19 49.84528 9.38707 10656 ft 319 kts 303°
2026-05-07 16:19 49.85747 9.35853 10226 ft 316 kts 299°
2026-05-07 16:19 49.86624 9.32755 9930 ft 309 kts 287°
2026-05-07 16:20 49.87216 9.29618 9806 ft 297 kts 286°
2026-05-07 16:20 49.87791 9.26615 9669 ft 286 kts 286°
2026-05-07 16:20 49.88352 9.23708 9496 ft 277 kts 286°
2026-05-07 16:20 49.88892 9.20899 9361 ft 266 kts 286°
2026-05-07 16:21 49.89410 9.18189 9229 ft 256 kts 286°
2026-05-07 16:21 49.89906 9.15588 9096 ft 247 kts 286°
2026-05-07 16:21 49.90383 9.13073 8888 ft 243 kts 286°
2026-05-07 16:21 49.90855 9.10592 8524 ft 240 kts 285°
2026-05-07 16:22 49.91327 9.08112 8189 ft 239 kts 285°
2026-05-07 16:22 49.91671 9.06298 7953 ft 238 kts 285°
2026-05-07 16:22 49.92140 9.03832 7627 ft 236 kts 286°
2026-05-07 16:22 49.92601 9.01398 7311 ft 235 kts 285°
2026-05-07 16:23 49.93061 8.98966 6986 ft 233 kts 285°
2026-05-07 16:23 49.93522 8.96565 6664 ft 232 kts 289°
2026-05-07 16:23 49.94292 8.94373 6377 ft 231 kts 307°
2026-05-07 16:23 49.95474 8.92683 6118 ft 233 kts 325°
2026-05-07 16:24 49.96955 8.91662 5865 ft 235 kts 344°
2026-05-07 16:24 49.98591 8.91426 5611 ft 238 kts
2026-05-07 16:24 50.00233 8.91686 5354 ft 239 kts 12°
2026-05-07 16:24 50.01773 8.92642 5100 ft 240 kts 29°
2026-05-07 16:25 50.03077 8.94264 4838 ft 242 kts 46°
2026-05-07 16:25 50.04033 8.96414 4580 ft 242 kts 64°
2026-05-07 16:25 50.04636 8.98855 4312 ft 242 kts 69°
2026-05-07 16:25 50.05202 9.01292 4053 ft 241 kts 69°
2026-05-07 16:26 50.05774 9.03737 3920 ft 240 kts 69°
2026-05-07 16:26 50.06347 9.06178 3908 ft 240 kts 69°
2026-05-07 16:26 50.06919 9.08621 3906 ft 240 kts 69°
2026-05-07 16:26 50.07489 9.11054 3894 ft 240 kts 69°
2026-05-07 16:27 50.08059 9.13494 3893 ft 240 kts 69°
2026-05-07 16:27 50.08631 9.15940 3891 ft 241 kts 69°
2026-05-07 16:27 50.09201 9.18389 4014 ft 240 kts 69°
2026-05-07 16:27 50.09773 9.20839 4017 ft 241 kts 69°
2026-05-07 16:28 50.10346 9.23289 4016 ft 241 kts 69°
2026-05-07 16:28 50.11004 9.25685 4008 ft 240 kts 54°
2026-05-07 16:28 50.12214 9.27418 4007 ft 235 kts 24°
2026-05-07 16:28 50.13765 9.27938 4008 ft 229 kts 351°
2026-05-07 16:29 50.15217 9.27068 4010 ft 224 kts 318°
2026-05-07 16:29 50.16102 9.25126 4011 ft 222 kts 290°
2026-05-07 16:29 50.16566 9.22833 4007 ft 222 kts 284°
2026-05-07 16:29 50.16971 9.20495 4008 ft 223 kts 284°
2026-05-07 16:30 50.17361 9.18163 3878 ft 222 kts 284°
2026-05-07 16:30 50.17753 9.15826 3879 ft 223 kts 284°
2026-05-07 16:30 50.18146 9.13487 3875 ft 223 kts 284°
2026-05-07 16:30 50.18342 9.11131 3881 ft 222 kts 262°
2026-05-07 16:31 50.17812 9.08861 3875 ft 223 kts 243°
2026-05-07 16:31 50.17199 9.06667 3876 ft 224 kts 248°
2026-05-07 16:31 50.16631 9.04403 3889 ft 224 kts 250°
2026-05-07 16:31 50.16093 9.02131 3890 ft 220 kts 251°
2026-05-07 16:32 50.15586 8.99961 3898 ft 207 kts 251°
2026-05-07 16:32 50.15098 8.97872 3902 ft 204 kts 251°
2026-05-07 16:32 50.14614 8.95803 3913 ft 203 kts 251°
2026-05-07 16:32 50.14129 8.93733 3922 ft 203 kts 251°
2026-05-07 16:33 50.13644 8.91664 3930 ft 202 kts 251°
2026-05-07 16:33 50.13164 8.89618 3936 ft 197 kts 251°
2026-05-07 16:33 50.12708 8.87680 3944 ft 185 kts 251°
2026-05-07 16:33 50.12282 8.85869 3949 ft 174 kts 251°
2026-05-07 16:34 50.11867 8.84105 3976 ft 171 kts 251°
2026-05-07 16:34 50.11462 8.82386 3971 ft 170 kts 251°
2026-05-07 16:34 50.11055 8.80655 3968 ft 170 kts 250°
2026-05-07 16:34 50.10648 8.78930 3971 ft 170 kts 250°
2026-05-07 16:35 50.10239 8.77197 3876 ft 171 kts 250°
2026-05-07 16:35 50.09823 8.75440 3680 ft 170 kts 250°
2026-05-07 16:35 50.09418 8.73726 3461 ft 171 kts 251°
2026-05-07 16:35 50.09007 8.71990 3232 ft 171 kts 251°
2026-05-07 16:36 50.08597 8.70259 2994 ft 171 kts 252°
2026-05-07 16:36 50.08183 8.68512 2741 ft 172 kts 252°
2026-05-07 16:36 50.07769 8.66767 2508 ft 172 kts 252°
2026-05-07 16:36 50.07372 8.65098 2272 ft 155 kts 252°
2026-05-07 16:37 50.07015 8.63596 2038 ft 144 kts 254°
2026-05-07 16:37 50.06686 8.62157 1818 ft 138 kts 253°
2026-05-07 16:37 50.06346 8.60749 1623 ft 140 kts 253°
2026-05-07 16:37 50.06002 8.59337 1432 ft 139 kts 252°
2026-05-07 16:38 50.05666 8.57938 1161 ft 136 kts 252°
2026-05-07 16:38 50.05349 8.56553 939 ft 138 kts 251°
2026-05-07 16:38 50.05012 8.55165 701 ft 136 kts 250°
2026-05-07 16:38 50.04688 8.53797 473 ft 133 kts 247°
2026-05-07 16:39 50.04371 8.52489 347 ft 121 kts 250°
2026-05-07 16:39 50.04131 8.51485 332 ft 74 kts 250°
2026-05-07 16:39 50.04018 8.51090 326 ft 32 kts 236°
2026-05-07 16:39 50.03911 8.50920 326 ft 20 kts 220°
2026-05-07 16:40 50.03841 8.50838 327 ft 5 kts 207°
2026-05-07 16:40 50.03822 8.50832 329 ft 4 kts 183°
2026-05-07 16:40 50.03793 8.50851 332 ft 7 kts 141°
2026-05-07 16:40 50.03800 8.51009 332 ft 25 kts 66°
2026-05-07 16:41 50.03854 8.51236 331 ft 24 kts 70°
2026-05-07 16:41 50.03914 8.51481 332 ft 23 kts 70°
2026-05-07 16:41 50.03971 8.51721 334 ft 24 kts 69°
2026-05-07 16:41 50.04030 8.51966 337 ft 25 kts 69°
2026-05-07 16:42 50.04082 8.52182 352 ft 20 kts 69°
2026-05-07 16:42 50.04131 8.52387 347 ft 20 kts 69°
2026-05-07 16:42 50.04177 8.52580 353 ft 18 kts 70°
2026-05-07 16:42 50.04226 8.52783 357 ft 26 kts 69°
2026-05-07 16:43 50.04293 8.53065 357 ft 27 kts 70°
2026-05-07 16:43 50.04354 8.53316 366 ft 23 kts 70°
2026-05-07 16:43 50.04396 8.53529 375 ft 18 kts 85°
2026-05-07 16:43 50.04409 8.53728 375 ft 19 kts 84°
2026-05-07 16:44 50.04423 8.53939 375 ft 21 kts 84°
2026-05-07 16:44 50.04437 8.54150 375 ft 18 kts 84°
2026-05-07 16:44 50.04450 8.54338 374 ft 17 kts 84°
2026-05-07 16:44 50.04444 8.54525 367 ft 13 kts 107°
2026-05-07 16:45 50.04403 8.54658 365 ft 16 kts 127°
2026-05-07 16:45 50.04304 8.54775 358 ft 20 kts 158°
2026-05-07 16:45 50.04187 8.54842 357 ft 16 kts 160°
2026-05-07 16:45 50.04077 8.54905 352 ft 15 kts 160°
2026-05-07 16:46 50.04016 8.54988 356 ft 11 kts 96°
2026-05-07 16:46 50.04037 8.55097 359 ft 13 kts 70°
2026-05-07 16:46 50.04076 8.55261 357 ft 19 kts 70°
2026-05-07 16:46 50.04111 8.55406 361 ft 24 kts 70°
2026-05-07 16:47 50.04171 8.55657 360 ft 23 kts 69°
2026-05-07 16:47 50.04223 8.55872 359 ft 21 kts 69°
2026-05-07 16:47 50.04263 8.56037 357 ft 13 kts 65°
2026-05-07 16:47 50.04339 8.56058 357 ft 8 kts 338°
2026-05-07 16:48 50.04371 8.56039 356 ft 7 kts 340°
2026-05-07 16:48 50.04407 8.56025 358 ft 5 kts 356°
2026-05-07 16:48 50.04442 8.56076 359 ft 9 kts 68°
2026-05-07 16:48 50.04468 8.56185 361 ft 11 kts 70°
2026-05-07 16:49 50.04494 8.56296 360 ft 10 kts 70°
2026-05-07 16:49 50.04509 8.56354 359 ft 3 kts 69°
2026-05-07 16:49 50.04519 8.56395 361 ft 0 kts 69°
2026-05-07 16:49 50.04520 8.56401 362 ft 4 kts 69°
2026-05-07 16:50 50.04535 8.56462 359 ft 5 kts 72°
2026-05-07 16:50 50.04529 8.56506 356 ft 3 kts 124°
2026-05-07 16:50 50.04510 8.56523 359 ft 3 kts 156°
2026-05-07 16:50 50.04496 8.56530 356 ft 2 kts 161°
2026-05-07 16:51 50.04490 8.56533 356 ft 0 kts 162°
2026-05-07 16:51 50.04486 8.56535 356 ft 0 kts 163°
2026-05-07 16:51 50.04484 8.56536 359 ft 0 kts 163°
2026-05-07 16:51 50.04482 8.56537 359 ft 1 kts 163°
2026-05-07 16:52 50.04480 8.56537 358 ft 0 kts 163°